Location: Ciula Mare
(45.6000°N, 22.8167°E)
Time: 04:13:07
(UTC+00:00)

Cosmos 468 Rocket - Pass Details

Date: 03 February 2023
Orbit: 744 x 778 km, 74.0° (Epoch: 29 March)

Event Time Altitude Azimuth Distance (km) Brightness Sun altitude
Rises 16:19:43 0° 343° (NNW) 3,221 7.3 -7.8°
Reaches altitude 10° 16:22:13 10° 349° (N) 2,287 6.4 -8.2°
Maximum altitude 16:27:10 45° 62° (ENE) 1,021 4.2 -9.1°
Drops below altitude 10° 16:32:04 10° 135° (SE) 2,257 6.1 -9.9°
Sets 16:34:30 0° 142° (SE) 3,175 6.9 -10.3°
